Voltar ao catálogo

CZ-4C SEP MOTOR COVER

AtivoLEO
NORAD 47697·DEBRIS·🇨🇳 China
Este nome de satélite ainda não foi confirmado por fontes oficiais.

Lançado Feb 24, 2021 de Jiuquan Satellite Launch Center

Loading…

Próximas Passagens (próximas 24 horas)

TLE

AtualizadoSource: Space-Track

Época: Sep 14, 2026, 09:05 UTC

1 47697U 21014G   26257.37880345 -.00000083  00000-0  10068-4 0  9992
2 47697  63.3992   2.8182 0167896   0.0862   0.0163 13.41618733271963

Acompanhe CZ-4C SEP MOTOR COVER em tempo real com AllMySat

Download on the App Store